Location: Unspecified
(50.7693°N, 0.0000°E)
Time: 09:16:24
(UTC+00:00)

SR - Pass Details

Date: 01 July 2019
Orbit: 580 x 876 km, 66.7° (Epoch: 20 July)

Event Time Altitude Azimuth Distance (km) Brightness Sun altitude
Rises 04:13:32 0° 276° (W) 2,825 ? 2.0°
Reaches altitude 10° 04:16:31 10° 299° (WNW) 1,955 ? 2.4°
Maximum altitude 04:19:16 16° 338° (NNW) 1,631 ? 2.8°
Drops below altitude 10° 04:22:06 10° 16° (NNE) 2,039 ? 3.1°
Sets 04:25:19 0° 38° (NE) 3,011 ? 3.6°
